| time (UTC) | temp C | wind direction | speed KPH | gust KPH | rain 1hr cm | rain 24hr cm | rain mn cm | humidity % | barometer mb |
| 20260906051505 | 20 | 328 | 4.8 | 14.5 | 0.00 | 0.00 | 0.00 | 53 | 1018.5 |
| 20260906050006 | 21 | 333 | 3.2 | 14.5 | 0.00 | 0.00 | 0.00 | 53 | 1018.4 |
| 20260906044506 | 21 | 326 | 3.2 | 11.3 | 0.00 | 0.00 | 0.00 | 53 | 1018.1 |
| 20260906043005 | 21 | 325 | 4.8 | 9.7 | 0.00 | 0.00 | 0.00 | 53 | 1017.9 |
| 20260906041506 | 21 | 323 | 3.2 | 11.3 | 0.00 | 0.00 | 0.00 | 53 | 1017.8 |
| 20260906040006 | 21 | 326 | 1.6 | 8.0 | 0.00 | 0.00 | 0.00 | 53 | 1017.6 |
| 20260906034505 | 21 | 324 | 3.2 | 12.9 | 0.00 | 0.00 | 0.00 | 52 | 1017.3 |
| 20260906033006 | 21 | 334 | 1.6 | 8.0 | 0.00 | 0.00 | 0.00 | 52 | 1016.9 |
| 20260906031506 | 21 | 323 | 1.6 | 8.0 | 0.00 | 0.00 | 0.00 | 52 | 1016.6 |
| 20260906030005 | 22 | 321 | 3.2 | 11.3 | 0.00 | 0.00 | 0.00 | 51 | 1016.4 |
| 20260906024506 | 22 | 320 | 3.2 | 11.3 | 0.00 | 0.00 | 0.00 | 51 | 1016.2 |
| 20260906023005 | 22 | 333 | 1.6 | 8.0 | 0.00 | 0.00 | 0.00 | 51 | 1016.0 |
| 20260906021505 | 22 | 308 | 3.2 | 11.3 | 0.00 | 0.00 | 0.00 | 50 | 1016.0 |
| 20260906020005 | 22 | 332 | 3.2 | 9.7 | 0.00 | 0.00 | 0.00 | 49 | 1015.8 |
| 20260906014505 | 22 | 342 | 4.8 | 12.9 | 0.00 | 0.00 | 0.00 | 49 | 1015.9 |
| 20260906013005 | 21 | 316 | 1.6 | 8.0 | 0.00 | 0.00 | 0.00 | 48 | 1016.1 |
| 20260906011505 | 21 | 327 | 1.6 | 4.8 | 0.00 | 0.00 | 0.00 | 48 | 1016.1 |
| 20260906010006 | 18 | 356 | 0.0 | 1.6 | 0.00 | 0.00 | 0.00 | 57 | 1016.4 |
| 20260906004506 | 18 | 0.0 | 0.0 | 0.00 | 0.00 | 0.00 | 57 | 1016.2 | |
| 20260906003006 | 18 | 0.0 | 0.0 | 0.00 | 0.00 | 0.00 | 56 | 1016.2 | |
| 20260906001505 | 18 | 0.0 | 0.0 | 0.00 | 0.00 | 0.00 | 58 | 1016.2 | |
| 20260906000006 | 19 | 0.0 | 0.0 | 0.00 | 0.00 | 0.00 | 54 | 1015.9 | |
| 20260905234506 | 18 | 336 | 0.0 | 1.6 | 0.00 | 0.00 | 0.00 | 56 | 1015.9 |
| 20260905233005 | 18 | 0.0 | 0.0 | 0.00 | 0.00 | 0.00 | 56 | 1015.9 | |
| 20260905231505 | 19 | 0.0 | 0.0 | 0.00 | 0.00 | 0.00 | 54 | 1015.6 | |
| 20260905230005 | 20 | 0.0 | 0.0 | 0.00 | 0.00 | 0.00 | 53 | 1015.4 | |
| 20260905224505 | 20 | 143 | 0.0 | 1.6 | 0.00 | 0.00 | 0.00 | 52 | 1015.4 |
| 20260905223006 | 20 | 0.0 | 0.0 | 0.00 | 0.00 | 0.00 | 49 | 1015.2 | |
| 20260905221506 | 20 | 0.0 | 0.0 | 0.00 | 0.00 | 0.00 | 50 | 1015.2 | |
| 20260905220005 | 21 | 0.0 | 0.0 | 0.00 | 0.00 | 0.00 | 50 | 1015.0 | |
| 20260905214505 | 20 | 0.0 | 0.0 | 0.00 | 0.00 | 0.00 | 52 | 1014.9 | |
| 20260905213005 | 21 | 0.0 | 0.0 | 0.00 | 0.00 | 0.00 | 53 | 1014.7 | |
| 20260905211505 | 21 | 0.0 | 0.0 | 0.00 | 0.00 | 0.00 | 52 | 1014.6 | |
| 20260905210005 | 21 | 0.0 | 0.0 | 0.00 | 0.00 | 0.00 | 49 | 1014.2 | |
| 20260905204506 | 21 | 0.0 | 0.0 | 0.00 | 0.00 | 0.00 | 48 | 1014.3 | |
| 20260905203006 | 22 | 0.0 | 0.0 | 0.00 | 0.00 | 0.00 | 46 | 1013.9 | |
| 20260905201505 | 23 | 0.0 | 0.0 | 0.00 | 0.00 | 0.00 | 43 | 1013.7 | |
| 20260905200005 | 23 | 0.0 | 0.0 | 0.00 | 0.00 | 0.00 | 43 | 1013.6 | |
| 20260905194506 | 23 | 0.0 | 0.0 | 0.00 | 0.00 | 0.00 | 45 | 1013.6 | |
| 20260905193006 | 23 | 0.0 | 0.0 | 0.00 | 0.00 | 0.00 | 44 | 1013.6 | |
| 20260905191506 | 23 | 0.0 | 0.0 | 0.00 | 0.00 | 0.00 | 47 | 1013.4 | |
| 20260905190005 | 23 | 0.0 | 0.0 | 0.00 | 0.00 | 0.00 | 45 | 1013.3 | |
| 20260905184505 | 24 | 0.0 | 0.0 | 0.00 | 0.00 | 0.00 | 43 | 1013.1 | |
| 20260905183005 | 25 | 0.0 | 0.0 | 0.00 | 0.00 | 0.00 | 42 | 1012.9 | |
| 20260905181506 | 25 | 0.0 | 0.0 | 0.00 | 0.00 | 0.00 | 40 | 1012.4 | |
| 20260905180005 | 26 | 0.0 | 0.0 | 0.00 | 0.00 | 0.00 | 39 | 1012.2 | |
| 20260905174505 | 26 | 0.0 | 0.0 | 0.00 | 0.00 | 0.00 | 39 | 1012.0 | |
| 20260905173006 | 27 | 0.0 | 0.0 | 0.00 | 0.00 | 0.00 | 36 | 1011.5 | |
| 20260905171506 | 28 | 0.0 | 0.0 | 0.00 | 0.00 | 0.00 | 34 | 1011.2 | |
| 20260905170005 | 30 | 168 | 0.0 | 3.2 | 0.00 | 0.00 | 0.00 | 32 | 1010.8 |
| 20260905164505 | 31 | 141 | 1.6 | 3.2 | 0.00 | 0.00 | 0.00 | 30 | 1010.4 |
| 20260905163006 | 33 | 152 | 1.6 | 4.8 | 0.00 | 0.00 | 0.00 | 27 | 1010.1 |
| 20260905161505 | 35 | 321 | 0.0 | 3.2 | 0.00 | 0.00 | 0.00 | 25 | 1009.7 |
| 20260905160006 | 35 | 197 | 0.0 | 1.6 | 0.00 | 0.00 | 0.00 | 24 | 1009.6 |
| 20260905154505 | 36 | 323 | 0.0 | 3.2 | 0.00 | 0.00 | 0.00 | 24 | 1009.4 |
| 20260905153006 | 37 | 137 | 0.0 | 1.6 | 0.00 | 0.00 | 0.00 | 23 | 1009.4 |
| 20260905151506 | 36 | 326 | 0.0 | 4.8 | 0.00 | 0.00 | 0.00 | 23 | 1009.6 |
| 20260905150005 | 37 | 314 | 0.0 | 1.6 | 0.00 | 0.00 | 0.00 | 22 | 1009.4 |
| 20260905144505 | 37 | 324 | 1.6 | 8.0 | 0.00 | 0.00 | 0.00 | 22 | 1009.6 |
| 20260905143006 | 37 | 325 | 1.6 | 3.2 | 0.00 | 0.00 | 0.00 | 22 | 1009.6 |
| 20260905141506 | 38 | 339 | 0.0 | 1.6 | 0.00 | 0.00 | 0.00 | 22 | 1009.5 |
| 20260905140006 | 36 | 323 | 1.6 | 8.0 | 0.00 | 0.00 | 0.00 | 22 | 1009.8 |
| 20260905134505 | 37 | 110 | 0.0 | 3.2 | 0.00 | 0.00 | 0.00 | 22 | 1009.8 |
| 20260905133005 | 37 | 134 | 0.0 | 1.6 | 0.00 | 0.00 | 0.00 | 22 | 1009.9 |
| 20260905131506 | 37 | 332 | 0.0 | 3.2 | 0.00 | 0.00 | 0.00 | 23 | 1010.0 |
| 20260905130006 | 37 | 323 | 1.6 | 4.8 | 0.00 | 0.00 | 0.00 | 23 | 1010.1 |
| 20260905124505 | 36 | 49 | 1.6 | 8.0 | 0.00 | 0.00 | 0.00 | 23 | 1010.2 |
| 20260905123006 | 37 | 326 | 0.0 | 3.2 | 0.00 | 0.00 | 0.00 | 25 | 1010.3 |
| 20260905121506 | 35 | 321 | 0.0 | 3.2 | 0.00 | 0.00 | 0.00 | 26 | 1010.7 |
| 20260905120006 | 34 | 329 | 0.0 | 3.2 | 0.00 | 0.00 | 0.00 | 27 | 1011.2 |
| 20260905114506 | 33 | 327 | 1.6 | 4.8 | 0.00 | 0.00 | 0.00 | 29 | 1011.6 |
| 20260905113006 | 33 | 319 | 1.6 | 8.0 | 0.00 | 0.00 | 0.00 | 29 | 1011.8 |
| 20260905111505 | 34 | 111 | 0.0 | 3.2 | 0.00 | 0.00 | 0.00 | 30 | 1011.8 |
| 20260905110006 | 32 | 329 | 1.6 | 9.7 | 0.00 | 0.00 | 0.00 | 31 | 1012.3 |
| 20260905104505 | 31 | 130 | 0.0 | 3.2 | 0.00 | 0.00 | 0.00 | 33 | 1012.6 |
| 20260905103005 | 30 | 144 | 1.6 | 4.8 | 0.00 | 0.00 | 0.00 | 35 | 1012.9 |
| 20260905101505 | 30 | 0.0 | 0.0 | 0.00 | 0.00 | 0.00 | 36 | 1013.2 | |
| 20260905100006 | 30 | 333 | 0.0 | 3.2 | 0.00 | 0.00 | 0.00 | 37 | 1013.5 |
| 20260905094505 | 28 | 323 | 0.0 | 3.2 | 0.00 | 0.00 | 0.00 | 38 | 1013.9 |
| 20260905093005 | 28 | 332 | 1.6 | 3.2 | 0.00 | 0.00 | 0.00 | 38 | 1014.1 |
| 20260905091505 | 27 | 331 | 0.0 | 1.6 | 0.00 | 0.00 | 0.00 | 40 | 1014.3 |
| 20260905090005 | 27 | 0.0 | 0.0 | 0.00 | 0.00 | 0.00 | 41 | 1014.5 | |
| 20260905084505 | 26 | 133 | 0.0 | 3.2 | 0.00 | 0.00 | 0.00 | 42 | 1014.9 |
| 20260905083005 | 23 | 0.0 | 0.0 | 0.00 | 0.00 | 0.00 | 47 | 1015.5 | |
| 20260905081506 | 22 | 139 | 0.0 | 3.2 | 0.00 | 0.00 | 0.00 | 49 | 1016.0 |
| 20260905080006 | 22 | 115 | 0.0 | 1.6 | 0.00 | 0.00 | 0.00 | 50 | 1016.1 |
| 20260905074505 | 21 | 113 | 0.0 | 1.6 | 0.00 | 0.00 | 0.00 | 52 | 1016.3 |
| 20260905073006 | 21 | 0.0 | 0.0 | 0.00 | 0.00 | 0.00 | 53 | 1016.5 | |
| 20260905071505 | 20 | 130 | 0.0 | 1.6 | 0.00 | 0.00 | 0.00 | 55 | 1016.6 |
| 20260905070005 | 19 | 138 | 0.0 | 3.2 | 0.00 | 0.00 | 0.00 | 57 | 1016.8 |
| 20260905064506 | 18 | 337 | 0.0 | 1.6 | 0.00 | 0.00 | 0.00 | 59 | 1017.0 |
| 20260905063005 | 18 | 122 | 0.0 | 3.2 | 0.00 | 0.00 | 0.00 | 59 | 1017.0 |
| 20260905061505 | 17 | 0.0 | 0.0 | 0.00 | 0.00 | 0.00 | 61 | 1017.2 | |
| 20260905060005 | 17 | 0.0 | 0.0 | 0.00 | 0.00 | 0.00 | 64 | 1017.3 | |
| 20260905054505 | 16 | 143 | 0.0 | 1.6 | 0.00 | 0.00 | 0.00 | 66 | 1017.4 |
| 20260905053006 | 16 | 0.0 | 0.0 | 0.00 | 0.00 | 0.00 | 68 | 1017.5 |